User: anonymous   Login
Location: Newark
(51.0500°N, 12.4500°E)
Time: 21:31:03
(UTC+00:00)
Language:

Courier 1B - Orbit

View from above orbital plane
View from above orbital plane
View from above satellite
View from above satellite

Ground track
Ground track

The orbit data is extracted from the following two-line orbital elements,

1    58U 60013A   20059.31261563  .00000100  00000-0  18484-4 0  9996
2    58  28.3284 293.4057 0165087 237.4049 121.0460 13.46321308924299
Epoch (UTC): 28 February 2020 07:30:09
Eccentricity: 0.0165087
inclination: 28.3284°
perigee height: 962 km
apogee height: 1209 km
right ascension of ascending node: 293.4057°
argument of perigee: 237.4049°
revolutions per day: 13.46321308
mean anomaly at epoch: 121.0460°
orbit number at epoch: 92429

The dashed part of the orbit path shows where the satellite is in the earth's shadow,  

DLR